This is the latest recevied weather packets stored in our database for station/object KB7KFC-3. If no packets are shown the sender has not sent any weather packets the latest 10 day(s).
| Time | Temp. | Humidity | Pressure | Rain* | Wind** | Luminosity | Snow |
|---|---|---|---|---|---|---|---|
| 1778006946 | 23.89° C | 36% | 1012.4 hPa | 0 mm | - | - | - |
| 1778006765 | 23.33° C | 37% | 1012.4 hPa | 0 mm | - | - | - |
| 1778006585 | 23.33° C | 36% | 1012.4 hPa | 0 mm | - | - | - |
| 1778006404 | 24.44° C | 35% | 1012.4 hPa | 0 mm | - | - | - |
| 1778006224 | 24.44° C | 37% | 1012.5 hPa | 0 mm | - | - | - |
| 1778006044 | 23.89° C | 36% | 1012.5 hPa | 0 mm | - | - | - |
| 1778005864 | 23.89° C | 37% | 1012.6 hPa | 0 mm | - | - | - |
| 1778005685 | 23.33° C | 37% | 1012.6 hPa | 0 mm | - | - | - |
| 1778005504 | 22.78° C | 37% | 1012.6 hPa | 0 mm | - | - | - |
| 1778005325 | 22.78° C | 37% | 1012.7 hPa | 0 mm | - | - | - |
| 1778005145 | 22.78° C | 35% | 1012.6 hPa | 0 mm | - | - | - |
| 1778004964 | 23.33° C | 36% | 1012.6 hPa | 0 mm | - | - | - |
| 1778004786 | 23.89° C | 35% | 1012.6 hPa | 0 mm | - | - | - |
| 1778004605 | 23.89° C | 38% | 1012.6 hPa | 0 mm | - | - | - |
| 1778004426 | 23.33° C | 38% | 1012.6 hPa | 0 mm | - | - | - |
| 1778004246 | 23.89° C | 36% | 1012.6 hPa | 0 mm | - | - | - |
| 1778004064 | 23.33° C | 38% | 1012.6 hPa | 0 mm | - | - | - |
| 1778003885 | 23.33° C | 38% | 1012.7 hPa | 0 mm | - | - | - |
| 1778003704 | 23.33° C | 37% | 1012.6 hPa | 0 mm | - | - | - |
| 1778003524 | 23.33° C | 39% | 1012.6 hPa | 0 mm | - | - | - |
| 1778003344 | 23.33° C | 39% | 1012.6 hPa | 0 mm | - | - | - |
| 1778003164 | 23.33° C | 38% | 1012.6 hPa | 0 mm | - | - | - |
| 1778002984 | 23.33° C | 39% | 1012.7 hPa | 0 mm | - | - | - |
| 1778002804 | 23.33° C | 39% | 1012.8 hPa | 0 mm | - | - | - |
| 1778002624 | 23.33° C | 40% | 1012.8 hPa | 0 mm | - | - | - |
* Rain latest hour (hover to see other rain measurements)
** Current wind speed in m/s (hover to see current wind gust speed)